Weather History for Aberdeen, SD

Change the Weather History Date:

Friday, August 15, 2014

  Actual Average Record
Temperature  
Mean Temperature 73 °F 70 °F  
Max Temperature 80 °F 82 °F 111 °F (1937)
Min Temperature 66 °F 57 °F 42 °F (1895)
Degree Days  
Heating Degree Days 0 1  
Month to date heating degree days 3 11  
Since 1 June heating degree days 123 101  
Since 1 July heating degree days 40 25  
Cooling Degree Days 8 5  
Month to date cooling degree days 50 94  
Year to date cooling degree days 252 417  
Since 1 June cooling degree days 210 394  
Growing Degree Days 23 (Base 50)    
Moisture  
Dew Point 68 °F    
Average Humidity 85    
Maximum Humidity 100    
Minimum Humidity 69    
Precipitation  
Precipitation 0.01 in 0.07 in 1.04 in (1967)
Month to date precipitation 1.04 1.17  
Year to date precipitation 10.48 15.03  
Sea Level Pressure  
Sea Level Pressure 29.83 in    
Wind  
Wind Speed 9 mph (SSE)    
Max Wind Speed 20 mph    
Max Gust Speed 26 mph    
Visibility 10 miles    
Events Rain , Thunderstorm    
T = Trace of Precipitation, MM = Missing Value Source: NWS Daily Summary

Daily Weather History Graph

Daily Weather History Graph

Search for Another Location

Airport:

Trip Planner

Search our weather history database for the weather conditions in past years. The results will help you decide how hot, cold, wet, or windy it might be!

Date:

Astronomy

Aug. 15, 2014 Rise Set
Actual Time 6:34 AM CDT 8:40 PM CDT
Civil Twilight 6:02 AM CDT 9:13 PM CDT
Nautical Twilight 5:22 AM CDT 9:52 PM CDT
Astronomical Twilight 4:38 AM CDT 10:36 PM CDT
Moon 11:24 PM CDT (8/15) 12:37 PM CDT (8/15)
Length of Visible Light 15h 10m
Length of Day
14h 06m
Waning Gibbous, 69% of the Moon is Illuminated
Aug 15
Waning Gibbous
Aug 17
Last Quarter
Aug 25
New
Sep 2
First Quarter
Sep 8
Full

Hourly Weather History & Observations

Time (CDT) Temp. Heat Index Dew Point Humidity Pressure Visibility Wind Dir Wind Speed Gust Speed Precip Events Conditions
12:53 AM 66.0 °F - 64.0 °F 93% 29.87 in 10.0 mi SE 8.1 mph - N/A   Partly Cloudy
1:53 AM 66.9 °F - 64.0 °F 90% 29.84 in 10.0 mi ESE 5.8 mph - N/A Thunderstorm Overcast
2:19 AM 66.0 °F - 64.9 °F 96% 29.87 in 10.0 mi East 3.5 mph - N/A   Mostly Cloudy
2:53 AM 66.0 °F - 64.9 °F 96% 29.84 in 10.0 mi ESE 6.9 mph - 0.01 in Rain Light Rain
3:53 AM 66.0 °F - 66.0 °F 100% 29.85 in 10.0 mi ESE 12.7 mph - 0.00 in   Mostly Cloudy
4:53 AM 68.0 °F - 66.0 °F 93% 29.83 in 10.0 mi SE 13.8 mph - N/A   Clear
5:53 AM 69.1 °F - 66.0 °F 90% 29.81 in 10.0 mi SSE 16.1 mph 24.2 mph N/A   Scattered Clouds
6:53 AM 69.1 °F - 66.0 °F 90% 29.81 in 10.0 mi South 13.8 mph - N/A   Clear
7:53 AM 69.1 °F - 66.0 °F 90% 29.81 in 10.0 mi South 12.7 mph - N/A   Clear
8:53 AM 69.8 °F - 66.2 °F 88% 29.84 in 10.0 mi South 10.4 mph - N/A   Clear
9:53 AM 71.1 °F - 66.0 °F 84% 29.85 in 10.0 mi SSE 13.8 mph - N/A   Mostly Cloudy
10:23 AM 72.0 °F - 66.0 °F 81% 29.86 in 10.0 mi SSE 10.4 mph - N/A   Scattered Clouds
10:37 AM 72.0 °F - 66.0 °F 81% 29.86 in 10.0 mi SSE 9.2 mph - N/A   Mostly Cloudy
10:53 AM 73.0 °F - 66.9 °F 81% 29.84 in 10.0 mi SSE 9.2 mph - N/A   Scattered Clouds
11:39 AM 75.0 °F - 66.9 °F 76% 29.85 in 10.0 mi South 13.8 mph - N/A   Scattered Clouds
11:53 AM 75.0 °F - 66.9 °F 76% 29.84 in 10.0 mi South 9.2 mph - N/A   Partly Cloudy
12:27 PM 75.9 °F - 68.0 °F 76% 29.86 in 10.0 mi South 13.8 mph - N/A   Mostly Cloudy
12:53 PM 75.9 °F - 68.0 °F 76% 29.83 in 10.0 mi SSE 9.2 mph - N/A   Overcast
1:53 PM 77.0 °F - 69.1 °F 76% 29.82 in 10.0 mi South 9.2 mph - N/A   Mostly Cloudy
2:53 PM 79.0 °F - 69.1 °F 72% 29.80 in 10.0 mi South 6.9 mph - N/A   Mostly Cloudy
3:04 PM 79.0 °F - 69.1 °F 72% 29.83 in 10.0 mi Variable 5.8 mph - N/A   Scattered Clouds
3:31 PM 79.0 °F - 69.1 °F 72% 29.82 in 10.0 mi SE 5.8 mph - N/A   Mostly Cloudy
3:41 PM 79.0 °F - 70.0 °F 74% 29.82 in 10.0 mi ESE 5.8 mph - N/A   Mostly Cloudy
3:53 PM 79.0 °F - 70.0 °F 74% 29.80 in 10.0 mi East 8.1 mph - N/A   Mostly Cloudy
4:25 PM 79.0 °F - 70.0 °F 74% 29.82 in 10.0 mi East 8.1 mph - N/A   Overcast
4:53 PM 79.0 °F - 70.0 °F 74% 29.80 in 10.0 mi ESE 8.1 mph - N/A   Overcast
5:53 PM 80.1 °F 83.2 °F 70.0 °F 71% 29.79 in 10.0 mi SE 6.9 mph - N/A   Overcast
6:53 PM 79.0 °F - 71.1 °F 77% 29.78 in 10.0 mi SSE 8.1 mph - N/A   Overcast
7:53 PM 75.9 °F - 70.0 °F 82% 29.78 in 10.0 mi SSE 8.1 mph - N/A   Overcast
8:53 PM 73.9 °F - 70.0 °F 87% 29.80 in 10.0 mi SSE 4.6 mph - N/A   Overcast
9:53 PM 72.0 °F - 70.0 °F 93% 29.81 in 10.0 mi South 3.5 mph - N/A   Overcast
10:53 PM 68.0 °F - 68.0 °F 100% 29.81 in 9.0 mi SSE 4.6 mph - N/A   Scattered Clouds